This demonstration page uses our WeatherBlox Daily Observations layout. Learn more.

38.88101, -77.10428

Hourly Observations for June 10, 2016

Temp ( °F °C ) Dew Point ( °F °C ) Humidity (%) Winds ( mph kmh ) Pressure ( in mb ) Visibility ( mi km ) Precip ( " mm )
12:52 am 00:52 Mostly Cloudy 69 20.6 40 4.4 35 35 NW 12 19 30 1016 10 16.0934 0 0
1:52 am 01:52 Mostly Cloudy 67 19.4 40 4.4 37 37 NNW 8 13 30.01 1016 10 16.0934 0 0
2:52 am 02:52 Cloudy 66 18.9 41 5 40 40 NNW 12 19 30.02 1017 10 16.0934 0 0
3:52 am 03:52 Mostly Cloudy 68 20 37 2.8 32 32 NNW 13 20 30.03 1017 10 16.0934 0 0
4:52 am 04:52 Clear 65 18.3 38 3.3 37 37 NNW 10 17 30.05 1018 10 16.0934 0 0
5:52 am 05:52 Partly Cloudy 63 17.2 38 3.3 40 40 N 9 15 30.08 1019 10 16.0934 0 0
6:52 am 06:52 Partly Cloudy 65 18.3 44 6.7 47 47 N 7 11 30.08 1019 10 16.0934 0 0
7:52 am 07:52 Partly Cloudy 68 20 42 5.6 39 39 N 12 19 30.1 1019 10 16.0934 0 0
8:52 am 08:52 Partly Cloudy 70 21.1 42 5.6 37 37 N 18 30 30.1 1019 10 16.0934 0 0
9:52 am 09:52 Partly Cloudy 71 21.7 43 6.1 36 36 N 14 22 30.11 1020 10 16.0934 0 0
10:52 am 10:52 Mostly Cloudy 74 23.3 45 7.2 36 36 N 13 20 30.11 1020 10 16.0934 0 0
11:52 am 11:52 Mostly Cloudy 76 24.4 47 8.3 36 36 NW 10 17 30.11 1020 10 16.0934 0 0
12:52 pm 12:52 Cloudy 78 25.6 49 9.4 36 36 NW 13 20 30.1 1019 10 16.0934 0 0
1:52 pm 13:52 Cloudy 79 26.1 49 9.4 35 35 NW 16 26 30.08 1019 10 16.0934 0 0
2:52 pm 14:52 Cloudy 81 27.2 49 9.4 33 33 N 14 22 30.07 1018 10 16.0934 0 0
3:52 pm 15:52 Mostly Cloudy 81 27.2 50 10 34 34 NNW 13 20 30.06 1018 10 16.0934 0 0
4:52 pm 16:52 Cloudy 81 27.2 51 10.6 35 35 WNW 14 22 30.04 1017 10 16.0934 0 0
5:52 pm 17:52 Cloudy 81 27.2 53 11.7 38 38 NNW 8 13 30.03 1017 10 16.0934 0 0
6:52 pm 18:52 Cloudy 80 26.7 52 11.1 38 38 NW 8 13 30.03 1017 10 16.0934 0 0
7:52 pm 19:52 Mostly Cloudy 79 26.1 53 11.7 41 41 N 6 9 30.04 1017 10 16.0934 0 0
8:52 pm 20:52 Cloudy 79 26.1 52 11.1 39 39 Calm 30.04 1017 10 16.0934 0 0
9:52 pm 21:52 Partly Cloudy 74 23.3 61 16.1 64 64 S 6 9 30.05 1018 10 16.0934 0 0
10:52 pm 22:52 Mostly Cloudy 73 22.8 59 15 62 62 S 3 6 30.06 1018 10 16.0934 0 0
11:52 pm 23:52 Mostly Cloudy 72 22.2 57 13.9 59 59 S 3 6 30.06 1018 10 16.0934 0 0

Powered by AerisWeather